Tracking 29489 objects as of 10-Sep-2024
HD Live streaming from Space Station
objects crossing your sky now

FENGYUN 1C DEB

Track FENGYUN 1C DEB now!
10-day predictions


NORAD ID: 30348
Int'l Code: 1999-025ABK
Perigee: 793.5 km
Apogee: 824.0 km
Inclination: 98.9 °
Period: 100.9 minutes
Semi major axis: 7179 km
RCS: 0.044 m2 (small)
Launch date: May 10, 1999
Source: People's Republic of China (PRC)
Launch site: Taiyaun Space Center, China (TSC)

Note: This is SATELLITE DEBRIS
Your satellite tracking list
Your tracking list is empty




NASA's NSSDC Master Catalog

Two Line Element Set (TLE):
1 30348U 99025ABK 24253.17931985  .00013895  00000-0  56992-2 0  9991
2 30348  98.8760 332.1383 0021240 276.7275 152.0464 14.27058897909580
Source of the keplerian elements: AFSPC